User: anonymous   Login
Location: Newark
(50.8964°N, 1.4048°W)
Time: 17:56:09
(UTC+00:00)
Language:

N. Korean satellite - Orbit

View from above orbital plane
View from above orbital plane
View from above satellite
View from above satellite

Ground track
Ground track

The orbit data is extracted from the following two-line orbital elements,

1 39026U 12072A   20053.04367104  .00000915  00000-0  35208-4 0  9994
2 39026  97.2196  53.3315 0036011 299.5728  60.1925 15.28348652399524
Epoch (UTC): 22 February 2020 01:02:53
Eccentricity: 0.0036011
inclination: 97.2196°
perigee height: 456 km
apogee height: 505 km
right ascension of ascending node: 53.3315°
argument of perigee: 299.5728°
revolutions per day: 15.28348652
mean anomaly at epoch: 60.1925°
orbit number at epoch: 39952

The dashed part of the orbit path shows where the satellite is in the earth's shadow,  

DLR